Regional Weather Roundup
Issued by NWS Midland/Odessa, TX

Home | Current Version | Previous Version | Text Only | Print | Product List | Glossary On
Versions: 1 2 3 4 5 6 7 8 9 10 11 12 13 14 15 16 17 18 19 20 21 22 23 24 25 26 27 28 29 30 31 32 33 34 35 36 37 38 39 40 41 42 43 44 45 46 47 48 49 50
000
ASUS44 KMAF 040010
RWRMAF
MIDLAND AREA WEATHER ROUNDUP
NATIONAL WEATHER SERVICE MIDLAND TX
600 PM CST TUE MAR 03 2015

...IN SOUTHWEST TEXAS AND SOUTHEAST NEW MEXICO...

CITY           SKY/WX    TMP DP  RH WIND       PRES   REMARKS
ALPINE         PTSUNNY   69  37  31 S10       29.88R
ANDREWS        FAIR      60  46  59 NE5       29.81S
ARTESIA        MOSUNNY   63  46  55 SW15      29.80S
BIG SPRING     CLOUDY    59  50  72 N7        29.82S
CARLSBAD       PTSUNNY   66  44  45 W18G24    29.79R
DRYDEN           N/A     60  48  64 SE9       29.77S
FORT STOCKTON  MOSUNNY   66  46  48 N9        29.76S
GUAD PASS      NOT AVBL
HOBBS          LGT RAIN  59  46  63 W3        29.83R
MARFA          CLOUDY    61  43  51 W14       29.87R
MIDLAND AIRPK  CLOUDY    58  49  70 N7        29.82R
MIDLAND INTL   MOCLDY    58  48  69 N9        29.81R
ODESSA         MOCLDY    57  46  66 N8        29.81R
PECOS          PTSUNNY   66  44  43 NW10      29.79R
PRESIDIO       CLOUDY    77  41  28 SW8       29.74R
SEMINOLE       MOCLDY    62  42  48 NE5       29.81F
SNYDER         CLOUDY    54  47  78 S5        29.82R
WINK           MOSUNNY   68  41  37 N9        29.77S
$$
...OTHER STATIONS IN TEXAS...

CITY           SKY/WX    TMP DP  RH WIND       PRES   REMARKS
ABILENE        CLOUDY    55  49  80 S3        29.82R
AMARILLO       CLOUDY    53  41  63 SE10      29.78S
AUSTIN         CLOUDY    58  58 100 S5        29.84F FOG
BROWNSVILLE    PTCLDY    73  68  84 S20       29.81F
CORPUS CHRISTI CLOUDY    67  65  93 S7        29.81F FOG
DALLAS FTW     DRIZZLE   52  51  97 S10       29.83R FOG
DEL RIO        MOCLDY    60  51  72 SE9       29.80R
EL PASO        PTSUNNY   60  43  53 NW8       29.83S
HOUSTON INT    PTCLDY    75  64  68 S14G21    29.87R
LUBBOCK        CLOUDY    59  41  51 CALM      29.81S
SAN ANGELO     MOCLDY    67  51  56 SE3       29.78S
SAN ANTONIO    DRIZZLE   59  56  89 E5        29.84S FOG
WACO           FOG       51  50  96 CALM      29.84S VSB 1/4
WICHITA FALLS  NOT AVBL
$$
...OTHER LOCATIONS IN NEW MEXICO...

CITY           SKY/WX    TMP DP  RH WIND       PRES   REMARKS
ALAMAGORDO     PTSUNNY   57  39  51 S9G16     29.83F
ALBUQUERQUE    MOSUNNY   56  27  32 NW9       29.74F
CANNON AFB     MOCLDY    56  44  62 SW10      29.77F
CLOVIS         CLOUDY    55  43  62 S12       29.78S
HOLLOMAN AFB   MOSUNNY   58  40  50 W13       29.80F
ROSWELL        PTSUNNY   59  45  59 S8        29.79R
RUIDOSO        MOSUNNY   45  32  61 SW24G31   29.84F WCI  36
SANTA FE       SUNNY     47  21  35 SW3       29.76F
TRUTH OR CONSE SUNNY     61  14  16 SW18G30   29.76S
TUCUMCARI      CLEAR     58  42  55 SW12      29.72S
$$



USA.gov is the U.S. government's official web portal to all federal, state and local government web resources and services.